Regional Weather Roundup
Issued by NWS

Home | Current Version | Previous Version | Graphics & Text | Print | Product List | Glossary On
Versions: 1 2 3 4 5 6 7 8 9 10 11 12 13 14 15 16 17 18 19 20 21 22 23 24 25 26 27 28 29 30 31 32 33 34 35 36 37 38 39 40 41 42 43 44 45 46 47 48 49 50
898
ASUS45 KBOU 240207
RWRCO

WEATHER ROUNDUP FOR COLORADO
NATIONAL WEATHER SERVICE DENVER/BOULDER CO
800 PM MDT SAT SEP 23 2017

NOTE: "FAIR" INDICATES FEW OR NO CLOUDS BELOW 12000 FEET WITH NO
SIGNIFICANT WEATHER AND/OR OBSTRUCTIONS TO VISIBILITY.

COZ001>005-013-030-031-240300-
...NORTHWEST COLORADO...

CITY           SKY/WX    TMP DP  RH WIND       PRES   REMARKS
CRAIG          CLOUDY    51  41  68 SE5       29.89R
HAYDEN         CLOUDY    48  40  73 E6        29.92R
MEEKER         CLOUDY    45  42  89 E6        29.92F
RABBIT EARS PA CLOUDY    32  32 100 S9        30.05S FOG     WCI  24
STEAMBOAT SPGS FAIR      44  41  90 CALM      29.92R
WALDEN         MOCLDY    39  36  87 SE6       30.00R
$$

COZ006>008-011-240300-
...WEST CENTRAL VALLEYS...

CITY           SKY/WX    TMP DP  RH WIND       PRES   REMARKS
GRAND JUNCTION FAIR      50  46  86 W8        29.80F
MONTROSE       FAIR      50  44  80 W3        29.86R
EAGLE          FAIR      47  42  83 NE3       29.94R
RIFLE          CLOUDY    50  43  77 W6        29.88R
DELTA          NOT AVBL
NUCLA          FAIR      50  41  71 SE6       29.86S
$$

COZ017>023-064>068-240300-
...SOUTHWEST COLORADO...

CITY           SKY/WX    TMP DP  RH WIND       PRES   REMARKS
DURANGO        MOCLDY    47  47 100 NE9       29.92R
CORTEZ         FAIR      56  44  64 SE12      29.82S
PAGOSA SPRINGS FAIR      44  44  99 CALM      29.99S
TELLURIDE      FAIR      43  35  74 E6        30.01R
WOLF CREEK PAS SNOW      30  30 100 S13G25    30.16R VSB 1/4 WCI  20
$$

COZ009-010-012-014-032>034-037-058>063-240300-
...CENTRAL COLORADO...

CITY           SKY/WX    TMP DP  RH WIND       PRES   REMARKS
ASPEN          MOCLDY    43  40  89 CALM      29.95R
BUENA VISTA    HVY RAIN  48  42  80 SW3       29.99R
COPPER MTN     SNOW      34  30  86 MISG      30.14R VSB 1/4
BERTHOUD PASS  CLOUDY    30  21  69 S21G32    30.13F WCI  17
COTTONWOOD PAS CLOUDY    46  36  66 S24G43    30.03F
GUNNISON       FAIR      47  38  71 N5        29.96S
KREMMLING      FAIR      45  37  76 CALM      29.97R
LEADVILLE      MOCLDY    35  33  92 E5        30.03R WCI  31
MONARCH PASS   CLOUDY    32  30  93 SW37G43   30.22F WCI  16
SALIDA         MOCLDY    53  47  81 CALM      30.04R
SUNLIGHT       FAIR      32  32 100 SW7       30.09S WCI  26
WILKERSON PASS DRIZZLE   36  36 100 S8        30.14R
$$

COZ069>075-240300-
...SAN LUIS VALLEY/SANGRE DE CRISTO MOUNTAINS...

CITY           SKY/WX    TMP DP  RH WIND       PRES   REMARKS
ALAMOSA        LGT RAIN  50  46  86 SE6       29.97R
DEL NORTE      FAIR      46  37  71 W9        29.99S
LA VETA PASS   CLOUDY    43  39  87 S22G38    30.17R
SAGUACHE       MOCLDY    46  43  87 E6        29.98S
$$

COZ035-036-038>040-240300-
...NORTHERN COLORADO FRONT RANGE...

CITY           SKY/WX    TMP DP  RH WIND       PRES   REMARKS
DENVER INTL AP HVY RAIN  44  42  93 NE16      29.97R FOG
DMNS CITY PARK   N/A     45  45  99 S3G18     30.00R
AURORA         RAIN      44  44 100 N12       30.00S FOG
FRONT RANGE AP RAIN      46  45  93 N12G21    30.01R
ERIE MUNI ARPT DRIZZLE   46  44  94 N3        30.05S
BOULDER MUN AP DRIZZLE   45  45 100 NE5       29.99R
CENTENNIAL     LGT RAIN  45  44  97 N8        30.00R
BROOMFIELD     LGT RAIN  46  45  93 NE7       30.01R FOG
FORT COLLINS   RAIN      46  45  96 E10       29.98S
LONGMONT       CLOUDY    48  46  91 CALM      30.00F
$$

COZ041-046-047-076>085-087-088-240300-
...PIKES PEAK/PALMER DIVIDE AND SOUTHERN FOOTHILLS...

CITY           SKY/WX    TMP DP  RH WIND       PRES   REMARKS
COLO. SPRINGS  LGT RAIN  47  44  90 N29G37    29.92F
A. F. ACADEMY  LGT RAIN  44  44  98 N13       29.98R
SCHRIEVER AFB  HVY RAIN  44  43  94 MISG      29.93R
CHEYENNE MTN   MOCLDY    44  43  94 N21G33    29.87F
ELLICOTT       HVY RAIN N/A N/A N/A N25G31    29.94R
FALCON         MIX PCPN  43  42  96 N15G26    29.98R
FORT CARSON    CLOUDY    48  44  88 N23G35    29.89S
LIMON            N/A    N/A N/A N/A MISG      29.97R
MONUMENT HILL  RAIN      39  39 100 N12       30.03R
CANON CITY     CLOUDY    61  57  88 CALM      29.83R
WALSENBURG     CLOUDY    57  54  88 CALM      29.89F
TRINIDAD       CLOUDY    63  53  70 S15       29.90R
$$

COZ042>045-048>051-090-091-240300-
...NORTHEAST COLORADO...

CITY           SKY/WX    TMP DP  RH WIND       PRES   REMARKS
GREELEY ARPT   HVY RAIN  46  44  93 NE10      29.99S
AKRON          LGT RAIN  46  44  93 N21G31    29.94R VSB 1/4
BURLINGTON     LGT RAIN  58  57  97 E12       29.87F
WRAY           LGT RAIN N/A N/A N/A NE13      29.89F
YUMA           LGT RAIN  52  52 100 NE12      29.91S
STERLING       NOT AVBL
HOLYOKE        RAIN      54  52  94 N12       29.92F
FORT MORGAN    LGT RAIN  45  43  93 N14G23    29.98R
$$

COZ086-089-092>099-240300-
...SOUTHEAST COLORADO...

CITY           SKY/WX    TMP DP  RH WIND       PRES   REMARKS
PUEBLO         TSTM      61  57  87 N10       29.83R
LA JUNTA       FAIR      63  58  83 S7        29.83R
LAMAR          FAIR      63  59  87 SE13G22   29.79F
SPRINGFIELD      N/A     59  59 100 S20       29.86F
$$




USA.gov is the U.S. government's official web portal to all federal, state and local government web resources and services.